This demonstration page uses our WeatherBlox Daily Observations layout. Learn more.

Left ArrowRight Arrow

39.92423, -83.80882

Hourly Observations for January 1, 2019

Temp ( °F °C ) Dew Point ( °F °C ) Humidity (%) Winds ( mph kmh ) Pressure ( in mb ) Visibility ( mi km ) Precip ( " mm )
12:56 am 00:56 Cloudy 48 8.9 42 5.6 80 80 WSW 23 37 29.83 1010 10 16 N/A
1:56 am 01:56 Cloudy 46 7.8 42 5.6 86 86 W 21 33 29.88 1012 10 16 N/A
2:56 am 02:56 Cloudy 44 6.7 40 4.4 85 85 W 21 33 29.94 1014 10 16 N/A
3:56 am 03:56 Cloudy 42 5.6 38 3.3 85 85 W 17 28 29.98 1015 10 16 N/A
5:56 am 05:56 Cloudy 40 4.4 38 3.3 93 93 WNW 13 20 30.06 1018 10 16 N/A
6:56 am 06:56 Cloudy 39 3.9 37 2.8 93 93 NW 12 19 30.10 1019 10 16 N/A
7:56 am 07:56 Cloudy 39 3.9 36 2.2 89 89 W 9 15 30.16 1021 10 16 N/A
8:56 am 08:56 Cloudy 38 3.3 36 2.2 93 93 WNW 9 15 30.19 1023 10 16 N/A
9:56 am 09:56 Cloudy 39 3.9 36 2.2 89 89 WNW 8 13 30.21 1023 10 16 N/A
10:56 am 10:56 Cloudy 39 3.9 36 2.2 89 89 NW 10 17 30.23 1024 10 16 N/A
11:56 am 11:56 Cloudy 39 3.9 36 2.2 89 89 NW 8 13 30.22 1023 10 16 N/A
12:56 pm 12:56 Cloudy 39 3.9 36 2.2 89 89 WNW 7 11 30.21 1023 10 16 N/A
1:56 pm 13:56 Cloudy 39 3.9 36 2.2 89 89 W 10 17 30.22 1023 10 16 N/A
2:56 pm 14:56 Cloudy 39 3.9 36 2.2 89 89 W 10 17 30.22 1023 10 16 N/A
3:56 pm 15:56 Cloudy 39 3.9 35 1.7 86 86 W 9 15 30.24 1024 10 16 N/A
4:56 pm 16:56 Cloudy 39 3.9 36 2.2 89 89 W 5 7 30.26 1025 10 16 N/A
5:22 pm 17:22 Cloudy 39 4 36 2 87 87 WNW 6 9 30.30 1026 10 16 N/A
5:56 pm 17:56 Cloudy 39 3.9 34 1.1 82 82 WNW 5 7 30.26 1025 10 16 N/A
6:56 pm 18:56 Cloudy 38 3.3 36 2.2 93 93 W 3 6 30.27 1025 10 16 N/A
7:56 pm 19:56 Cloudy 38 3.3 36 2.2 93 93 W 5 7 30.28 1025 10 16 N/A
8:42 pm 20:42 Cloudy N/A N/A N/A W 5 7 N/A 10 16 N/A
8:56 pm 20:56 Cloudy 38 3.3 36 2.2 93 93 W 6 9 30.28 1026 10 16 N/A
9:56 pm 21:56 Cloudy with Light Rain 37 2.8 37 2.8 100 100 W 6 9 30.27 1025 10 16 N/A
10:17 pm 22:17 Cloudy with Light Rain 37 3 37 3 100 100 W 3 6 30.30 1026 9 14 N/A
10:56 pm 22:56 Cloudy 37 2.8 37 2.8 100 100 WNW 5 7 30.26 1025 10 16 N/A
11:09 pm 23:09 Cloudy 37 3 36 2 93 93 WNW 5 7 30.30 1026 10 16 N/A
11:54 pm 23:54 Cloudy 37 3 36 2 93 93 WNW 3 6 30.30 1026 10 16 N/A
11:56 pm 23:56 Cloudy 37 2.8 36 2.2 96 96 WNW 3 6 30.26 1025 10 16 N/A

Powered by AerisWeather